This is the latest recevied weather packets stored in our database for station/object K2CCS. If no packets are shown the sender has not sent any weather packets the latest 10 day(s).
| Time | Temp. | Humidity | Pressure | Rain* | Wind** | Luminosity | Snow |
|---|---|---|---|---|---|---|---|
| 1777591667 | 11.67° C | 68% | 1012.1 hPa | 0 mm | - | 17 W/m² | - |
| 1777591363 | 12.22° C | 68% | 1012.1 hPa | 0 mm | - | 19 W/m² | - |
| 1777591059 | 12.22° C | 70% | 1012 hPa | 0 mm | - | 20 W/m² | - |
| 1777590755 | 12.78° C | 72% | 1011.9 hPa | 0 mm | - | 25 W/m² | - |
| 1777590450 | 12.22° C | 72% | 1011.6 hPa | 0 mm | - | 29 W/m² | - |
| 1777590148 | 12.22° C | 72% | 1011.5 hPa | 0 mm | - | 28 W/m² | - |
| 1777589844 | 12.22° C | 71% | 1011.7 hPa | 0 mm | - | 28 W/m² | - |
| 1777589539 | 12.22° C | 72% | 1011.7 hPa | 0 mm | - | 22 W/m² | - |
| 1777589238 | 12.78° C | 72% | 1011.3 hPa | 0 mm | - | 23 W/m² | - |
| 1777588935 | 12.78° C | 71% | 1011.5 hPa | 0 mm | - | 35 W/m² | - |
| 1777588631 | 12.78° C | 72% | 1011.3 hPa | 0 mm | - | 34 W/m² | - |
| 1777588327 | 12.78° C | 72% | 1011.1 hPa | 0 mm | - | 29 W/m² | - |
| 1777588023 | 12.78° C | 72% | 1011 hPa | 0 mm | - | 34 W/m² | - |
| 1777587718 | 12.78° C | 72% | 1011.1 hPa | 0 mm | - | 50 W/m² | - |
| 1777587412 | 12.78° C | 73% | 1011.1 hPa | 0 mm | - | 62 W/m² | - |
| 1777587109 | 12.78° C | 73% | 1010.8 hPa | 0 mm | - | 67 W/m² | - |
| 1777586805 | 12.78° C | 73% | 1011.1 hPa | 0 mm | - | 67 W/m² | - |
| 1777586500 | 12.78° C | 76% | 1011 hPa | 0 mm | - | 65 W/m² | - |
| 1777586196 | 12.78° C | 82% | 1010.9 hPa | 0 mm | - | 78 W/m² | - |
| 1777585894 | 12.78° C | 90% | 1010.9 hPa | 0 mm | - | 87 W/m² | - |
| 1777585588 | 12.78° C | 90% | 1010.7 hPa | 0 mm | - | 101 W/m² | - |
| 1777585284 | 12.78° C | 90% | 1010.8 hPa | 0 mm | - | 119 W/m² | - |
| 1777584979 | 12.78° C | 92% | 1010.5 hPa | 0 mm | - | 133 W/m² | - |
| 1777584676 | 12.78° C | 93% | 1010.8 hPa | 0 mm | - | 89 W/m² | - |
| 1777584373 | 12.78° C | 93% | 1010.5 hPa | 0 mm | - | 90 W/m² | - |
* Rain latest hour (hover to see other rain measurements)
** Current wind speed in m/s (hover to see current wind gust speed)